Weather History for Eureka, NU

Change the Weather History Date:

Sunday, November 13, 2011

  Actual Average Record
Temperature  
Mean Temperature -17 °F -  
Max Temperature -8 °F -21 °F 17 °F (1998)
Min Temperature -26 °F -34 °F -43 °F (2004)
Degree Days  
Heating Degree Days 82    
Moisture  
Dew Point -28 °F    
Average Humidity 62    
Maximum Humidity 70    
Minimum Humidity 48    
Precipitation  
Precipitation 0.00 in 0.00 in - ()
Sea Level Pressure  
Sea Level Pressure 29.91 in    
Wind  
Wind Speed 2 mph ()    
Max Wind Speed 18 mph    
Max Gust Speed -    
Visibility 15.0 miles    
Events Snow    
Averages and records for this station are not official NWS values.
T = Trace of Precipitation, MM = Missing Value Source: Averaged Metar Reports

Daily Weather History Graph

Daily Weather History Graph

Search for Another Location

Airport:

Trip Planner

Search our weather history database for the weather conditions in past years. The results will help you decide how hot, cold, wet, or windy it might be!

Date:

Astronomy

Dec. 31, 1969 Rise Set
Actual Time Sun does not rise Sun does not rise
Civil Twilight Sun does not rise Sun does not rise
Nautical Twilight 7:49 AM CST 3:04 PM CST
Astronomical Twilight 5:19 AM CST 5:32 PM CST
Moon No Moon Rise No Moon Set
Length of Visible Light 0h 00m
Length of Day
0h 00m
Waning Gibbous, 92% of the Moon is Illuminated
Nov 13
Waning Gibbous
Nov 18
Last Quarter
Nov 25
New
Dec 2
First Quarter
Dec 10
Full

Hourly Weather History & Observations

Time (CST) Temp. Windchill Dew Point Humidity Pressure Visibility Wind Dir Wind Speed Gust Speed Precip Events Conditions
12:00 AM -23 °F - -31 °F 50% 30.01 in 15 mi Calm Calm - - Snow Snow
12:00 AM -23.8 °F - -31.0 °F 69% 30.01 in 15.0 mi Calm Calm - N/A   Clear
1:00 AM -22.0 °F -35.6 °F -31.0 °F 63% 30.01 in 15.0 mi WNW 4.6 mph - N/A   Clear
2:00 AM -23.8 °F - -31.0 °F 69% 30.01 in 15.0 mi Calm Calm - N/A   Clear
3:00 AM -22.0 °F - -31.0 °F 63% 30.00 in 15.0 mi NW 2.3 mph - N/A   Clear
4:00 AM -22.0 °F -33.0 °F -31.0 °F 63% 29.99 in 15.0 mi West 3.5 mph - N/A   Clear
6:00 AM -24 °F - -32 °F 49% 29.98 in 15 mi SW 2.3 mph - - Snow Snow
6:00 AM -23.8 °F -35.0 °F -32.8 °F 63% 29.98 in 15.0 mi SW 3.5 mph - N/A   Clear
7:00 AM -25.6 °F - -34.6 °F 63% 29.96 in 15.0 mi Calm Calm - N/A   Clear
8:00 AM -23.8 °F - -32.8 °F 63% 29.96 in 15.0 mi Calm Calm - N/A   Clear
10:00 AM -23.8 °F -37.7 °F -32.8 °F 63% 29.94 in 15.0 mi WNW 4.6 mph - N/A   Partly Cloudy
11:00 AM -23.8 °F -35.0 °F -34.6 °F 57% 29.92 in 15.0 mi WNW 3.5 mph - N/A   Clear
12:00 PM -24 °F - -32 °F 48% 29.90 in 15 mi NW 2.3 mph - - Snow Snow
12:00 PM -23.8 °F -35.0 °F -32.8 °F 63% 29.90 in 15.0 mi WNW 3.5 mph - N/A   Clear
1:00 PM -18.4 °F -31.4 °F -25.6 °F 70% 29.86 in 15.0 mi West 4.6 mph - N/A   Partly Cloudy
2:00 PM -14.8 °F - -22.0 °F 70% 29.84 in 15.0 mi Calm Calm - N/A   Partly Cloudy
3:00 PM -14.8 °F -27.2 °F -22.0 °F 70% 29.85 in 15.0 mi WNW 4.6 mph - N/A   Partly Cloudy
4:00 PM -14.8 °F -24.8 °F -23.8 °F 64% 29.85 in 15.0 mi WNW 3.5 mph - N/A   Partly Cloudy
5:00 PM -13.0 °F -30.0 °F -20.2 °F 70% 29.82 in 15.0 mi West 8.1 mph - N/A   Partly Cloudy
6:00 PM -12 °F - -20 °F 54% 29.82 in 15 mi North 6.9 mph - -   Partly Cloudy
6:00 PM -11.2 °F -27.8 °F -20.2 °F 64% 29.82 in 15.0 mi North 8.1 mph - N/A   Partly Cloudy
7:00 PM -11.2 °F -35.8 °F -20.2 °F 64% 29.81 in 15.0 mi North 18.4 mph - N/A   Partly Cloudy
8:00 PM -11.2 °F - -20.2 °F 64% 29.78 in 15.0 mi Calm Calm - N/A   Partly Cloudy
9:00 PM -14.8 °F -24.8 °F -23.8 °F 64% 29.79 in 15.0 mi NNE 3.5 mph - N/A   Scattered Clouds